Location: *
(28.3744°N, 81.5492°W)
Time: 03:59:51
(UTC+00:00)

Cosmos 44 Rocket - Pass Details

Date: 15 June 2025
Orbit: 649 x 730 km, 65.1° (Epoch: 11 July)

Event Time Altitude Azimuth Distance (km) Brightness Sun altitude
Rises 00:58:29 0° 337° (NNW) 3,062 7.6 -7.3°
Reaches altitude 10° 01:00:48 10° 339° (NNW) 2,156 6.7 -7.7°
Maximum altitude 01:05:43 70° 63° (ENE) 753 3.4 -8.6°
Drops below altitude 10° 01:10:42 10° 147° (SSE) 2,193 5.3 -9.6°
Enters shadow 01:10:48 10° 147° (SSE) 2,232 5.3 -9.6°
